Погода в Парнасе

Греция     38°38′40″N   22°31′52″E
темп.,
°C
ветер,
м/с
пор.,
м/с
влажн.,
%
обл.,
%
осадки,
мм/ч
давл.,
гПа
погр.,
м
10 мая, пн
пн1000:00+10юз11630 0.0 102510
03:00+9з00640 0.0 102410
06:00+8з11720 0.0 102410
09:00+12св22640 0.0 1024543
12:00+16всв33500 0.0 1022977
15:00+18св43465 0.0 10211036
18:00+17св325052 0.0 1020743
21:00+11в11745 0.0 102011
11 мая, вт
вт1100:00+9зюз117636 0.0 102110
03:00+9з11725 0.0 101910
06:00+8з21620 0.0 101911
09:00+14ссв21490 0.0 1018372
12:00+18св32410 0.0 1017821
15:00+21св42420 0.0 10161028
18:00+19всв324993 0.0 1014669
21:00+12вюв11735 0.0 101511
12 мая, ср
ср1200:00+12ю11755 0.0 101410
03:00+11юз11770 0.0 101310
06:00+10ююз11740 0.0 101210
09:00+17в21505 0.0 1010328
12:00+22всв333896 0.0 1009836
15:00+24всв34345 0.0 10071066
18:00+23в13320 0.0 1006755
21:00+16юз32470 0.0 100731
13 мая, чт
чт1300:00+13юз33540 0.0 100839
03:00+11зюз33670 0.0 100836
06:00+11зюз336544 0.0 100834
09:00+18зсз12425 0.0 1007464
12:00+23ссв24304 0.0 10071992
15:00+26ссв132717 0.0 10062602
18:00+23з33355 0.0 10071475
21:00+15зюз34590 0.0 100958
14 мая, пт
пт1400:00+12юз3371100 0.0 101157
03:00+11юз33710 0.0 101142
06:00+10зюз33690 0.0 101236
09:00+17сз12420 0.0 1012606
12:00+23с24285 0.0 10122326
15:00+25ссв232620 0.0 10122727
18:00+24ссз12285 0.0 10132058
21:00+16зюз32500 0.0 101531